Regional Weather Roundup
Issued by NWS Charleston, SC

Current Version | Previous Version | Text Only | Print | Product List | Glossary Off
Versions: 1 2 3 4 5 6 7 8 9 10 11 12 13 14 15 16 17 18 19 20 21 22 23 24 25 26 27 28 29 30 31 32 33 34 35 36 37 38 39 40 41 42 43 44 45 46 47 48 49 50

000
ASUS42 KCHS 180212
RWRCHS

Regional Weather Roundup
National Weather Service Charleston SC
900 PM EST WED JAN 17 2018

NOTE: "fair" indicates few or no clouds below 12,000 feet with no
significant weather and/or obstructions to visibility.

Not all stations are quality controlled. Use data with caution,
especially dewpoint observations.

SCZ027-030-031-034>040-042>050-180300-
...Southeast South Carolina...

CITY           SKY/WX    TMP DP  RH WIND       PRES   REMARKS
N Charleston   CLOUDY    37  30  75 NW12      30.23S WCI  29
Waterfront Prk NOT AVBL
Mount Pleasant MOCLDY    36  32  87 NW15G24   30.23R FOG     WCI  26
Johns Island   CLOUDY    37  30  75 W17       30.24R WCI  28
Pinopolis        N/A     36  32  87 N14G22    30.16R WCI  27
Moncks Corner  CLOUDY    34  28  80 NW6       30.24R WCI  29
Summerville    CLOUDY    36  30  80 NW13G18   30.27R WCI  27
Beaufort MCAS  CLOUDY    35  20  54 W13       30.29R WCI  26
Beaufort Arpt  CLOUDY    34  21  60 W12G21    30.28R WCI  25
Hilton Head Is FAIR      34  16  47 NW12G20   30.29R WCI  25
Walterboro     CLOUDY    34  30  86 NW8       30.28R WCI  27
Allendale      CLOUDY    34  18  51 VRB6      30.30R WCI  29

...Southern Midlands and Pee Dee...

CITY           SKY/WX    TMP DP  RH WIND       PRES   REMARKS
Georgetown     CLOUDY    34  34 100 NW12G23   30.21R WCI  25
Kingstree      CLOUDY    32  28  86 NW12G20   30.25R WCI  23
Orangeburg     CLOUDY    33  27  78 N7        30.28R WCI  27
Barnwell       FLURRIES  32  30  93 NW10      30.31R WCI  24
Aiken          FLURRIES  28  23  80 NW10G21   30.34R WCI  19
Manning        CLOUDY    32  23  69 MISG      30.27R
Columbia       CLOUDY    32  26  78 NW8       30.31R WCI  25
Sumter         CLOUDY    30  23  73 NW15G28   30.26R WCI  19
Florence       CLOUDY    30  26  85 N12       30.25R WCI  20
Myrtle Beach   CLOUDY    36  34  92 NW15      30.18R WCI  27
N Myrtle Beach CLOUDY    36  35  96 NW10G18   30.15R FOG     WCI  28

$$

GAZ063-065-086>088-099>101-113>116-118-119-134>141-150-180300-
...Southeast Georgia...

CITY           SKY/WX    TMP DP  RH WIND       PRES   REMARKS
Savannah Arpt  FAIR      33  13  43 NW18G24   30.32R WCI  22
Hunter AAF     FAIR      33  11  40 NW17      30.29R WCI  22
Fort Stewart   FAIR      31  11  42 W17G23    30.33R WCI  20
Statesboro     FAIR      29  10  45 NW12      30.34R WCI  20
Sylvania       CLOUDY    31  17  54 NW15      30.34R WCI  20
Claxton        FAIR      31  12  46 W9        30.36R WCI  22

...CSRA, Central and far Southeast Georgia...

CITY           SKY/WX    TMP DP  RH WIND       PRES   REMARKS
Thomson        FAIR      28  10  47 N8        30.39R WCI  19
Augusta-Bush   CLOUDY    32  14  47 NW12      30.33R WCI  23
Augusta-Daniel CLOUDY    32  14  47 NW9       30.33R WCI  24
Swainsboro     FAIR      28  12  50 NW10      30.37R WCI  19
Vidalia        MOCLDY    30  12  47 NW10G16   30.37R WCI  21
Eastman        FAIR      27   0  30 NW5       30.42S WCI  22
Hazlehurst     FAIR      29  -2  26 NW6       30.38R WCI  23
Alma           FAIR      29   8  41 NW14      30.38R WCI  18
Waycross       FAIR      30   7  37 NW16G22   30.38R WCI  18
Jesup          FAIR      32  10  40 NW14G24   30.36R WCI  22
Baxley         FAIR      28   9  43 NW12G17   30.38R WCI  18
Brunswick      FAIR      32  16  51 W7        30.35R WCI  26
Saint Simons   FAIR      34  16  47 W13G24    30.33R WCI  25

$$

SCZ027-028-034-036>038-045-046-048>050-GAZ119-141-180300-
...Lake and Supplemental Coastal Observations...

STATION/POSITION TIME  TEMP    WIND        PRES    WAVE   SWELL
                       AIR SEA DIR/SP/G            HT/PER HT/PER/DIR
                 (UTC) (F)     (DEG/KT/KT) (MB)    (FT/S) (FT/S/D)
Winyah Bay       0045   38     300/ 12     1021.0
Lake Murray      0120   29     320/  4/ 10 1025.1R
ACE Basin NERRS  0045   35     310/  3     1024.0
Fort Pulaski     0148      46  310/ 20/ 25 1026.1R
Sapelo Island    0100   37     320/ 14     1026.0

$$

ANZ835-935-AMZ111-154-330-350-352-354-370-450-454-472-180300-
...C-MAN and Buoy Observations...

STATION/POSITION TIME  TEMP    WIND        PRES    WAVE   SWELL
                       AIR SEA DIR/SP/G            HT/PER HT/PER/DIR
                 (UTC) (F)     (DEG/KT/KT) (MB)    (FT/S) (FT/S/D)
Buoy 41004       0150   44 69  300/ 23/ 31 1021.6R   7/ 6   3/100/11
Buoy 41008       0150   39 52  290/ 23/ 29 1025.1R   5/ 5   2/100/11
Folly Beach CMAN 0200   37     300/ 10/ 14 1024.1R
Capers Nearshore 0108   36 49  300/ 19/ 27 1022.2R
Fripp Nearshore  0108   35 47  320/ 16/ 21 1023.9R


STATION/POSITION TIME  TEMP    WIND        PRES    WAVE   SWELL
                       AIR SEA DIR/SP/G            HT/PER HT/PER/DIR
                 (UTC) (F)     (DEG/KT/KT) (MB)    (FT/S) (FT/S/D)
5E St. Marys GA  0200      50                N/A     4/12   2/110/12
Frying Pan Buoy  0150   45 67  310/ 19/ 25 1018.6R   6/11   3/110/11
Buoy 41025       0200   45 72  360/ 29/ 35 1016.9
Cape Lookout NC  0100           10/ 19/ 25 1018.3F
Buoy 41002       0150   65 70  280/ 12/ 16 1016.4F   8/11   7/ 80/11
Buoy 41010       NOT AVBL
St Augustine FL  0200   40 50  310/ 10/ 13 1026.9R


$$




USA.gov is the U.S. government's official web portal to all federal, state and local government web resources and services.